Location: Corralito
(10.2667°N, 66.9500°W)
Time: 19:25:13
(UTC+00:00)

Cosmos 2237 - Pass Details

Date: 23 March 2023
Orbit: 848 x 854 km, 70.8° (Epoch: 08 June)

Event Time Altitude Azimuth Distance (km) Brightness Sun altitude
Rises 23:18:43 0° 341° (NNW) 3,406 7.7 -10.7°
Reaches altitude 10° 23:21:10 10° 340° (NNW) 2,470 6.9 -11.3°
Maximum altitude 23:26:50 77° 255° (WSW) 870 4.4 -12.7°
Drops below altitude 10° 23:32:30 10° 169° (S) 2,468 6.5 -14.1°
Sets 23:34:57 0° 167° (SSE) 3,402 7.2 -14.7°
